(94008) = 2000 XT25 = 1999 RB78

Discovered at Socorro on 2000-12-04 by LINEAR.

Orbit

Orbit type: Main Belt

Note: WebGL enabled browser required.

epoch2023-09-13.0
epoch JD2460200.5
perihelion date2020-07-02.68103
perihelion JD2459033.18103
argument of perihelion (°)12.57414
ascending node (°)1.56904
inclination (°)10.84642
eccentricity0.0966630
perihelion distance (AU)2.6800954
Tisserand w.r.t. Jupiter3.2
ΔV w.r.t. Earth (km/sec)10.8
semimajor axis (AU)2.9668834
mean anomaly (°)225.13482
mean daily motion (°/day)0.19286490
aphelion distance (AU)3.254
period (years)5.11
P-vector [x]0.96979465
P-vector [y]0.20432035
P-vector [z]0.13323488
Q-vector [x]-0.24386839
Q-vector [y]0.80062273
Q-vector [z]0.54729467
absolute magnitude14.9
phase slope0.15
uncertainty0
referenceMPEC 2023-X132
observations used963
oppositions20
arc length (days)11403
first opposition used1992
last opposition used2023
residual rms (arc-secs)0.73
perturbers coarse indicatorM-v
perturbers precise indicator003Ek
first observation date used1992-03-30.0
last observation date used2023-06-19.0
computer nameMPCLINUX
JD of orbit computation2456937.293636
perihelion JD uncertainty (days)1.6451E-04
argument of perihelion uncertainty (°)4.1315E-05
ascending node uncertainty (°)2.7831E-05
inclination uncertainty (°)7.3431E-06
eccentricity uncertainty 5.9161E-08
perihelion distance uncertainty (AU)1.7964E-07
Minimum Orbit Intersection Distances (in AU)
for orbit epoch: 2460200.5, reference: E2023-XD2
Mercury2.32728
Venus1.95817
Earth1.68036
Mars1.27161
Jupiter2.20329
Saturn6.12946
Uranus15.2215
Neptune27.1702

Observations

991 total observations over interval: 1992 03 30.26391 – 2023 06 19.304354
These data are available for download (format description).

Date (UT) J2000 RA J2000 Dec Magn Location Ref
1992 03 30.26391 12 02 54.33 -00 48 02.9 19.9 V 691 – Steward Observatory, Kitt Peak-Spacewatch MPS 24077
1992 03 30.28120 12 02 53.43 -00 48 00.4   691 – Steward Observatory, Kitt Peak-Spacewatch MPS 24077
1992 03 30.29796 12 02 52.58 -00 47 57.5   691 – Steward Observatory, Kitt Peak-Spacewatch MPS 24077
1999 09 07.35093 22 46 30.56 -14 52 32.3 19.4   704 – Lincoln Laboratory ETS, New Mexico MPS 6257
1999 09 07.36270 22 46 29.96 -14 52 31.7 19.5   704 – Lincoln Laboratory ETS, New Mexico MPS 6257
1999 09 07.37451 22 46 29.30 -14 52 33.6 19.2   704 – Lincoln Laboratory ETS, New Mexico MPS 6257
1999 09 07.38634 22 46 28.54 -14 52 34.4 19.5   704 – Lincoln Laboratory ETS, New Mexico MPS 6257
1999 09 13.23040 22 41 15.40 -14 56 00.9 18.9   704 – Lincoln Laboratory ETS, New Mexico MPS 6257
1999 09 13.25333 22 41 14.22 -14 55 59.6 19.0   704 – Lincoln Laboratory ETS, New Mexico MPS 6257
1999 09 13.26533 22 41 13.51 -14 55 59.4 19.1   704 – Lincoln Laboratory ETS, New Mexico MPS 6257
1999 09 13.27685 22 41 12.83 -14 55 59.7 18.9   704 – Lincoln Laboratory ETS, New Mexico MPS 6257
2000 12 04.28725 06 01 52.43 +39 34 43.9 18.5   704 – Lincoln Laboratory ETS, New Mexico MPS 23088
2000 12 04.30269 06 01 51.58 +39 34 45.7 19.2   704 – Lincoln Laboratory ETS, New Mexico MPS 23088
2000 12 04.33265 06 01 49.62 +39 34 49.9 19.1   704 – Lincoln Laboratory ETS, New Mexico MPS 23088
2000 12 04.34883 06 01 48.68 +39 34 53.1 18.4   704 – Lincoln Laboratory ETS, New Mexico MPS 23088
2000 12 06.31067 05 59 48.80 +39 39 17.7 18.8   704 – Lincoln Laboratory ETS, New Mexico MPS 23088
2000 12 06.32568 05 59 47.82 +39 39 19.8 19.1   704 – Lincoln Laboratory ETS, New Mexico MPS 23088
2000 12 06.34185 05 59 46.80 +39 39 22.6 19.4   704 – Lincoln Laboratory ETS, New Mexico MPS 23088
2000 12 06.35686 05 59 45.92 +39 39 23.4 19.2   704 – Lincoln Laboratory ETS, New Mexico MPS 23088
2000 12 08.21516 05 57 49.14 +39 42 56.5 18.4   704 – Lincoln Laboratory ETS, New Mexico MPS 23088
2000 12 08.23031 05 57 48.07 +39 42 57.0 19.0   704 – Lincoln Laboratory ETS, New Mexico MPS 23088
2000 12 08.27837 05 57 44.94 +39 43 02.5 19.3   704 – Lincoln Laboratory ETS, New Mexico MPS 23088
2002 02 09.39890 11 43 13.95 +06 56 17.5 19.9 R 735 – George Observatory, Needville MPS 49319
2002 02 09.40638 11 43 13.58 +06 56 22.6 20.1 R 735 – George Observatory, Needville MPS 49319
2002 02 10.38595 11 42 40.28 +06 58 23.2 19.0   704 – Lincoln Laboratory ETS, New Mexico MPS 52292
2002 02 10.40021 11 42 39.80 +06 58 24.8 19.6   704 – Lincoln Laboratory ETS, New Mexico MPS 52292
2002 02 10.41447 11 42 39.28 +06 58 26.6 19.7   704 – Lincoln Laboratory ETS, New Mexico MPS 52292
2002 02 10.42877 11 42 38.78 +06 58 28.4 19.9   704 – Lincoln Laboratory ETS, New Mexico MPS 52292
2002 02 12.44823 11 41 26.42 +07 02 54.0 19.1   704 – Lincoln Laboratory ETS, New Mexico MPS 52292
2002 02 12.46245 11 41 25.83 +07 02 55.4 19.7   704 – Lincoln Laboratory ETS, New Mexico MPS 52292
2002 02 12.47668 11 41 25.30 +07 02 57.2 19.5   704 – Lincoln Laboratory ETS, New Mexico MPS 52292
2002 02 12.49088 11 41 24.85 +07 02 58.8 19.8   704 – Lincoln Laboratory ETS, New Mexico MPS 52292
2002 02 12.50511 11 41 24.27 +07 03 00.3 19.5   704 – Lincoln Laboratory ETS, New Mexico MPS 52292
2002 02 14.25553 11 40 18.17 +07 07 02.7 18.9 R 735 – George Observatory, Needville MPS 49319
2002 02 14.26758 11 40 17.69 +07 07 05.4 19.3 R 735 – George Observatory, Needville MPS 49319
2002 02 14.28014 11 40 17.34 +07 07 07.8 19.6 R 735 – George Observatory, Needville MPS 49319
2002 02 20.02381 11 36 18.34 +07 21 35.9 19.8 V 049 – Uppsala-Kvistaberg MPS 49319
2002 02 20.03838 11 36 17.74 +07 21 38.6 20.1 V 049 – Uppsala-Kvistaberg MPS 49319
2002 02 20.05293 11 36 17.20 +07 21 41.2 19.4 V 049 – Uppsala-Kvistaberg MPS 49319
2002 02 20.30510 11 36 06.19 +07 22 23.5 19.0   704 – Lincoln Laboratory ETS, New Mexico MPS 52292
2002 02 20.31897 11 36 05.66 +07 22 26.0 19.8   704 – Lincoln Laboratory ETS, New Mexico MPS 52292
2002 02 20.34677 11 36 04.23 +07 22 30.7 19.5   704 – Lincoln Laboratory ETS, New Mexico MPS 52292
2002 02 20.36116 11 36 03.64 +07 22 33.7 19.7   704 – Lincoln Laboratory ETS, New Mexico MPS 52293
2002 02 21.22900 11 35 24.95 +07 24 52.8 18.8 R 735 – George Observatory, Needville MPS 49319
2002 02 21.23953 11 35 24.43 +07 24 54.7 19.0 R 735 – George Observatory, Needville MPS 49319
2002 02 21.24647 11 35 24.17 +07 24 56.6 18.8 R 735 – George Observatory, Needville MPS 49319
2002 02 24.40737 11 32 57.99 +07 33 38.4 19.5   644 – Palomar Mountain/NEAT MPS 52293
2002 02 24.42860 11 32 56.96 +07 33 41.7 19.4   644 – Palomar Mountain/NEAT MPS 52293
2002 02 24.45226 11 32 55.83 +07 33 45.5 20.3   644 – Palomar Mountain/NEAT MPS 52293
2002 03 05.242920 11 25 40.493 +07 58 32.69 19.39 V 645 – Apache Point-Sloan Digital Sky Survey MPS 79834
2002 03 05.246392 11 25 40.310 +07 58 33.24 20.16   645 – Apache Point-Sloan Digital Sky Survey MPS 79834
2002 03 09.28420 11 22 12.05 +08 09 39.7 19.1   644 – Palomar Mountain/NEAT MPS 52293
2002 03 09.28801 11 22 11.85 +08 09 41.7 19.2 V 291 – LPL/Spacewatch II MPS 52293
2002 03 09.29217 11 22 11.57 +08 09 43.5 19.0   704 – Lincoln Laboratory ETS, New Mexico MPS 52293
2002 03 09.30881 11 22 10.75 +08 09 45.3 19.3 V 291 – LPL/Spacewatch II MPS 52293
2002 03 09.31219 11 22 10.55 +08 09 44.3 18.6   704 – Lincoln Laboratory ETS, New Mexico MPS 52293
2002 03 09.32915 11 22 09.66 +08 09 48.4 19.3 V 291 – LPL/Spacewatch II MPS 52293
2002 03 09.33213 11 22 09.52 +08 09 48.5 18.9   704 – Lincoln Laboratory ETS, New Mexico MPS 52293
2002 03 09.35202 11 22 08.47 +08 09 51.3 19.0   704 – Lincoln Laboratory ETS, New Mexico MPS 52293
2002 03 09.36425 11 22 07.81 +08 09 52.5 18.9   644 – Palomar Mountain/NEAT MPS 52293
2002 03 09.37174 11 22 07.38 +08 09 55.5 19.1   704 – Lincoln Laboratory ETS, New Mexico MPS 52293
2002 03 09.43494 11 22 04.07 +08 10 03.8 19.4   644 – Palomar Mountain/NEAT MPS 52293
2002 03 12.31388 11 19 35.03 +08 17 39.5 18.6   704 – Lincoln Laboratory ETS, New Mexico MPS 52293
2002 03 12.33272 11 19 34.04 +08 17 41.8 18.7   704 – Lincoln Laboratory ETS, New Mexico MPS 52293
2002 03 12.35147 11 19 33.04 +08 17 44.6 19.3   704 – Lincoln Laboratory ETS, New Mexico MPS 52293
2002 03 12.47835 11 19 26.39 +08 18 04.1 19.2   644 – Palomar Mountain/NEAT MPS 52293
2002 03 12.48874 11 19 25.86 +08 18 05.6 19.2   644 – Palomar Mountain/NEAT MPS 52293
2002 03 12.49915 11 19 25.32 +08 18 07.4 19.0   644 – Palomar Mountain/NEAT MPS 52293
2002 03 14.24915 11 17 55.39 +08 22 32.4 18.7   704 – Lincoln Laboratory ETS, New Mexico MPS 52293
2002 03 14.29137 11 17 53.14 +08 22 38.6 18.9   704 – Lincoln Laboratory ETS, New Mexico MPS 52293
2002 03 14.30526 11 17 52.42 +08 22 40.3 19.1   704 – Lincoln Laboratory ETS, New Mexico MPS 52293
2002 03 16.24359 11 16 13.44 +08 27 21.6 19.1   704 – Lincoln Laboratory ETS, New Mexico MPS 52293
2002 03 16.25700 11 16 12.71 +08 27 22.9 19.2   704 – Lincoln Laboratory ETS, New Mexico MPS 52293
2002 03 16.27042 11 16 12.02 +08 27 24.8 19.0   704 – Lincoln Laboratory ETS, New Mexico MPS 52293
2002 03 16.28387 11 16 11.31 +08 27 26.6 19.4   704 – Lincoln Laboratory ETS, New Mexico MPS 52293
2002 03 16.29734 11 16 10.64 +08 27 28.7 19.2   704 – Lincoln Laboratory ETS, New Mexico MPS 52293
2002 03 16.32081 11 16 09.32 +08 27 31.4 19.0   704 – Lincoln Laboratory ETS, New Mexico MPS 52293
2002 03 16.33428 11 16 08.61 +08 27 33.3 18.9   704 – Lincoln Laboratory ETS, New Mexico MPS 52293
2002 03 16.36247 11 16 07.24 +08 27 37.2 19.4   704 – Lincoln Laboratory ETS, New Mexico MPS 52293
2002 03 21.25751 11 12 03.36 +08 38 15.4 19.3   704 – Lincoln Laboratory ETS, New Mexico MPS 52293
2002 03 21.27010 11 12 02.68 +08 38 17.1 19.7   704 – Lincoln Laboratory ETS, New Mexico MPS 52293
2002 03 21.28276 11 12 02.08 +08 38 18.3 19.2   704 – Lincoln Laboratory ETS, New Mexico MPS 52293
2002 03 21.29600 11 12 01.31 +08 38 20.4 19.2   704 – Lincoln Laboratory ETS, New Mexico MPS 52293
2002 04 09.13412 10 59 02.89 +08 59 10.2 19.7   704 – Lincoln Laboratory ETS, New Mexico MPS 54889
2002 04 09.14639 10 59 02.42 +08 59 11.2 19.6   704 – Lincoln Laboratory ETS, New Mexico MPS 54889
